Salt Lake City, UT

12:38 AM MDT on September 29, 2016 (GMT -0600)
Salt Lake City International

Weather History for KSLC - April, 2013

Change the Weather History Date:

Tuesday, April 9, 2013

  Actual Average Record
Temperature  
Mean Temperature 37 °F 49 °F  
Max Temperature 43 °F 60 °F 83 °F (1996)
Min Temperature 30 °F 38 °F 20 °F (1875)
Degree Days  
Heating Degree Days 28 16  
Month to date heating degree days 121 153  
Since 1 July heating degree days 4979 5071  
Cooling Degree Days 0 0  
Month to date cooling degree days 0 0  
Year to date cooling degree days 0 0  
Moisture  
Dew Point 17 °F    
Average Humidity 48    
Maximum Humidity 63    
Minimum Humidity 33    
Precipitation  
Precipitation 0.00 in 0.07 in 1.19 in (1974)
Month to date precipitation 1.40 0.59  
Year to date precipitation 4.31 4.88  
Snow  
Snow 0.00 in 0.20 in 9.00 in (1929)
Month to date snowfall 0.0 1.7  
Since 1 July snowfall 69.8 53.6  
Snow Depth 0.00 in    
Sea Level Pressure  
Sea Level Pressure 29.90 in    
Wind  
Wind Speed 13 mph (NNE)    
Max Wind Speed 35 mph    
Max Gust Speed 41 mph    
Visibility 10 miles    
Events      
T = Trace of Precipitation, MM = Missing Value Source: NWS Daily Summary

Daily Weather History Graph

Daily Weather History Graph

Search for Another Location

Airport or City:

Trip Planner

Search our weather history database for the weather conditions in past years. The results will help you decide how hot, cold, wet, or windy it might be!

Date:

Astronomy

Apr. 09, 2013 Rise Set
Actual Time 6:57 AM MDT 8:01 PM MDT
Civil Twilight 6:29 AM MDT 8:29 PM MDT
Nautical Twilight 5:56 AM MDT 9:03 PM MDT
Astronomical Twilight 5:21 AM MDT 9:38 PM MDT
Moon 6:22 AM MDT (4/9) 7:40 PM MDT (4/9)
Length of Visible Light 13h 59m
Length of Day
13h 03m
Waning Crescent, 0% of the Moon is Illuminated
Apr 9
Waning Crescent
Apr 10
New
Apr 18
First Quarter
Apr 25
Full
May 2
Last Quarter

Hourly Weather History & Observations

Time (MDT) Temp. Windchill Dew Point Humidity Pressure Visibility Wind Dir Wind Speed Gust Speed Precip Events Conditions
12:53 AM 36.0 °F 27.1 °F 21.0 °F 55% 29.60 in 10.0 mi NNE 13.8 mph 29.9 mph 0.00 in   Overcast
1:53 AM 36.0 °F 33.3 °F 19.9 °F 52% 29.62 in 10.0 mi Variable 3.5 mph - N/A   Overcast
2:37 AM 33.8 °F 21.3 °F 21.2 °F 60% 29.67 in 10.0 mi NNE 24.2 mph 28.8 mph N/A   Overcast
2:53 AM 32.0 °F 19.5 °F 21.9 °F 66% 29.68 in 10.0 mi NNE 21.9 mph 33.4 mph N/A   Overcast
3:53 AM 32.0 °F 28.7 °F 19.0 °F 59% 29.70 in 10.0 mi ENE 3.5 mph - N/A   Overcast
4:53 AM 30.9 °F 21.2 °F 17.1 °F 57% 29.72 in 10.0 mi NNE 12.7 mph - N/A   Mostly Cloudy
5:53 AM 30.0 °F 21.7 °F 18.0 °F 61% 29.76 in 10.0 mi NNE 9.2 mph - N/A   Mostly Cloudy
6:53 AM 30.9 °F 26.2 °F 19.0 °F 61% 29.80 in 10.0 mi WNW 4.6 mph - N/A   Overcast
7:53 AM 30.9 °F 24.3 °F 16.0 °F 54% 29.83 in 10.0 mi ESE 6.9 mph 17.3 mph N/A   Overcast
8:53 AM 30.9 °F 25.2 °F 14.0 °F 50% 29.83 in 10.0 mi South 5.8 mph - N/A   Mostly Cloudy
9:53 AM 33.1 °F 30.0 °F 14.0 °F 46% 29.88 in 10.0 mi SSW 3.5 mph - N/A   Mostly Cloudy
10:53 AM 35.1 °F 28.6 °F 14.0 °F 42% 29.91 in 10.0 mi North 8.1 mph - N/A   Mostly Cloudy
11:53 AM 37.0 °F 29.8 °F 15.1 °F 41% 29.94 in 10.0 mi NNW 10.4 mph - N/A   Mostly Cloudy
12:53 PM 37.0 °F 31.6 °F 16.0 °F 42% 29.94 in 10.0 mi NW 6.9 mph 24.2 mph N/A   Mostly Cloudy
1:53 PM 39.9 °F 31.8 °F 17.1 °F 40% 29.94 in 10.0 mi NNE 15.0 mph 23.0 mph N/A   Scattered Clouds
2:53 PM 43.0 °F 34.0 °F 19.0 °F 38% 29.95 in 10.0 mi North 21.9 mph 32.2 mph N/A   Mostly Cloudy
3:53 PM 42.1 °F 32.6 °F 17.1 °F 37% 29.98 in 10.0 mi NNE 23.0 mph - N/A   Scattered Clouds
4:53 PM 42.1 °F 31.3 °F 15.1 °F 34% 30.00 in 10.0 mi NNE 29.9 mph 40.3 mph N/A   Scattered Clouds
5:53 PM 41.0 °F 31.6 °F 15.1 °F 35% 30.02 in 10.0 mi NNE 20.7 mph 27.6 mph N/A   Scattered Clouds
6:53 PM 39.9 °F 31.1 °F 14.0 °F 35% 30.03 in 10.0 mi NE 17.3 mph 26.5 mph N/A   Scattered Clouds
7:53 PM 39.0 °F 31.8 °F 15.1 °F 38% 30.08 in 10.0 mi NE 11.5 mph - N/A   Scattered Clouds
8:53 PM 36.0 °F 30.3 °F 15.1 °F 43% 30.10 in 10.0 mi SE 6.9 mph - N/A   Scattered Clouds
9:53 PM 36.0 °F 32.1 °F 16.0 °F 44% 30.13 in 10.0 mi NE 4.6 mph - N/A   Scattered Clouds
10:53 PM 36.0 °F 31.1 °F 17.1 °F 46% 30.11 in 10.0 mi WSW 5.8 mph - N/A   Mostly Cloudy
11:53 PM 35.1 °F 32.2 °F 18.0 °F 50% 30.11 in 10.0 mi SW 3.5 mph - N/A   Mostly Cloudy